Location: Sungai Liu
(2.3667°N, 113.8667°E)
Time: 13:20:58
(UTC+00:00)

Envisat - Pass Details

Date: 20 May 2022
Orbit: 763 x 765 km, 98.2° (Epoch: 07 July)

Event Time Altitude Azimuth Distance (km) Brightness Sun altitude
Rises 20:25:14 0° 18° (NNE) 3,214 6.8 -26.1°
Reaches altitude 10° 20:27:33 10° 21° (NNE) 2,290 6.0 -25.6°
Maximum altitude 20:32:32 63° 102° (ESE) 850 3.3 -24.4°
Enters shadow 20:35:22 26° 175° (S) 1,480 4.3 -23.8°
